Iron Mountain, MI

8:45 AM CST on January 16, 2018 (GMT -0600)
Ford

Weather History for KIMT - September, 2011

Change the Weather History Date:

Wednesday, September 14, 2011

  Actual Average Record
Temperature  
Mean Temperature 45 °F -  
Max Temperature 54 °F 70 °F 93 °F (1939)
Min Temperature 36 °F 45 °F 28 °F (1946)
Degree Days  
Heating Degree Days 20    
Moisture  
Dew Point 33 °F    
Average Humidity 62    
Maximum Humidity 90    
Minimum Humidity 35    
Precipitation  
Precipitation 0.00 in - - ()
Sea Level Pressure  
Sea Level Pressure 30.10 in    
Wind  
Wind Speed 11 mph (NW)    
Max Wind Speed 21 mph    
Max Gust Speed 28 mph    
Visibility 10 miles    
Events      
Averages and records for this station are not official NWS values.
T = Trace of Precipitation, MM = Missing Value Source: NWS Daily Summary

Daily Weather History Graph

Daily Weather History Graph

Search for Another Location

Airport or City:

Trip Planner

Search our weather history database for the weather conditions in past years. The results will help you decide how hot, cold, wet, or windy it might be!

Date:

Astronomy

Sep. 14, 2011 Rise Set
Actual Time 6:29 AM CDT 7:06 PM CDT
Civil Twilight 5:59 AM CDT 7:36 PM CDT
Nautical Twilight 5:23 AM CDT 8:11 PM CDT
Astronomical Twilight 4:46 AM CDT 8:48 PM CDT
Moon 7:38 PM CDT (9/14) 8:51 AM CDT (9/14)
Length of Visible Light 13h 36m
Length of Day
12h 36m
Waning Gibbous, 95% of the Moon is Illuminated
Sep 14
Waning Gibbous
Sep 20
Last Quarter
Sep 27
New
Oct 3
First Quarter
Oct 11
Full

Hourly Weather History & Observations

Time (CDT) Temp. Windchill Dew Point Humidity Pressure Visibility Wind Dir Wind Speed Gust Speed Precip Events Conditions
1:54 AM 50.0 °F - 46.0 °F 86% 29.91 in 10.0 mi West 5.8 mph - N/A   Clear
2:54 AM 48.9 °F - 46.0 °F 90% 29.92 in 10.0 mi West 8.1 mph - N/A   Clear
3:54 AM 48.0 °F - 41.0 °F 77% 29.94 in 10.0 mi NW 10.4 mph - N/A   Clear
4:54 AM 45.0 °F 40.1 °F 39.0 °F 80% 29.97 in 10.0 mi NW 9.2 mph - N/A   Scattered Clouds
5:54 AM 44.1 °F 35.7 °F 34.0 °F 68% 30.00 in 10.0 mi NW 20.7 mph 24.2 mph N/A   Clear
6:54 AM 42.1 °F 37.7 °F 33.1 °F 70% 30.03 in 10.0 mi WNW 6.9 mph - N/A   Partly Cloudy
7:54 AM 43.0 °F 38.2 °F 34.0 °F 71% 30.07 in 10.0 mi WNW 8.1 mph - N/A   Mostly Cloudy
8:54 AM 45.0 °F 38.9 °F 30.9 °F 58% 30.09 in 10.0 mi NW 12.7 mph 27.6 mph N/A   Mostly Cloudy
9:54 AM 46.9 °F - 30.0 °F 52% 30.11 in 10.0 mi WNW 18.4 mph 26.5 mph N/A   Scattered Clouds
10:54 AM 48.0 °F - 28.9 °F 48% 30.12 in 10.0 mi NW 17.3 mph 27.6 mph N/A   Mostly Cloudy
11:54 AM 48.0 °F - 28.9 °F 48% 30.12 in 10.0 mi NNW 15.0 mph 23.0 mph N/A   Mostly Cloudy
12:54 PM 52.0 °F - 26.1 °F 37% 30.12 in 10.0 mi NW 12.7 mph 25.3 mph N/A   Scattered Clouds
1:54 PM 52.0 °F - 25.0 °F 35% 30.11 in 10.0 mi NW 12.7 mph - N/A   Overcast
2:54 PM 50.0 °F - 28.9 °F 44% 30.12 in 10.0 mi NNW 17.3 mph 24.2 mph N/A   Overcast
3:33 PM 53.6 °F - 26.6 °F 35% 30.10 in 10.0 mi WNW 16.1 mph 25.3 mph N/A   Mostly Cloudy
4:54 PM 51.1 °F - 28.0 °F 41% 30.14 in 10.0 mi NNW 12.7 mph - N/A   Overcast
5:54 PM 48.9 °F - 26.1 °F 41% 30.15 in 10.0 mi West 11.5 mph 21.9 mph N/A   Partly Cloudy
6:54 PM 46.9 °F - 28.9 °F 50% 30.17 in 10.0 mi NW 9.2 mph - N/A   Partly Cloudy
7:54 PM 43.0 °F 38.8 °F 30.9 °F 62% 30.20 in 10.0 mi WNW 6.9 mph - N/A   Clear
8:54 PM 42.1 °F 35.2 °F 33.1 °F 70% 30.21 in 10.0 mi NW 12.7 mph - N/A   Mostly Cloudy
9:54 PM 39.0 °F 34.0 °F 35.1 °F 86% 30.20 in 10.0 mi NW 6.9 mph - 0.00 in   Clear
10:54 PM 37.9 °F 32.7 °F 34.0 °F 86% 30.21 in 10.0 mi WNW 6.9 mph - N/A   Clear
11:54 PM 36.0 °F 30.3 °F 33.1 °F 89% 30.22 in 10.0 mi WNW 6.9 mph - N/A   Clear